Regional Weather Roundup
Issued by NWS Northern Indiana

Home | Current Version | Previous Version | Graphics & Text | Print | Product List | Glossary On
Versions: 1 2 3 4 5 6 7 8 9 10 11 12 13 14 15 16 17 18 19 20 21 22 23 24 25 26 27 28 29 30 31 32 33 34 35 36 37 38 39 40 41 42 43 44 45 46 47 48 49 50
000
ASUS43 KIWX 221700
RWRIWX

KIWX WEATHER ROUNDUP
NATIONAL WEATHER SERVICE NORTHERN INDIANA
100 PM EDT WED MAR 22 2017

NOTE: "FAIR" INDICATES FEW OR NO CLOUDS BELOW 12,000 FEET WITH NO
SIGNIFICANT WEATHER AND/OR OBSTRUCTIONS TO VISIBILITY.

* THESE STATIONS ARE NOT UNDER NWS QUALITY CONTROL. THEY ALSO MAY NOT
  REPORT WEATHER SUCH AS PRECIPITATION OR FOG.

INZ001>027-221800-
NORTHERN INDIANA

CITY           SKY/WX    TMP DP  RH WIND       PRES   REMARKS
GARY*          MOSUNNY   32  16  51 NE12G23   30.61R WCI  23
KNOX*          SUNNY     32 -11  15 NE5       30.58S WCI  27
SOUTH BEND     SUNNY     30  10  43 NE6       30.58S WCI  24
ELKHART*       SUNNY     30   9  40 E6        30.57F WCI  24
GOSHEN         SUNNY     30  10  43 NE8       30.57F WCI  22
MONTICELLO*    SUNNY     32  13  46 E8        30.57S WCI  24
ANGOLA*        SUNNY     28  10  47 N3        30.55S
FORT WAYNE     MOSUNNY   31  13  47 E10       30.57S WCI  22
PERU/GRISSOM   SUNNY     31  15  51 E7        30.54F WCI  24

$$
INZ028>050-221800-
CENTRAL INDIANA

CITY           SKY/WX    TMP DP  RH WIND       PRES   REMARKS
LAFAYETTE      SUNNY     33  16  49 NE9       30.57S WCI  25
KOKOMO*        SUNNY     31  20  63 E10       30.57S WCI  22
MUNCIE*        SUNNY     32  17  54 NE12      30.55R WCI  23
INDIANAPOLIS   MOSUNNY   35  15  44 E14       30.53S WCI  26

$$
MIZ043>046-050>051-056>058-064>065-071>073-077>080-221800-
SOUTHWEST LOWER MICHIGAN

CITY           SKY/WX    TMP DP  RH WIND       PRES   REMARKS
BATTLE CREEK   SUNNY     30  10  43 VRB3      30.56F
BENTON HARBOR  SUNNY     32   9  38 CALM      30.59F
COLDWATER*     SUNNY     30   8  38 E6        30.56S WCI  24
HILLSDALE*     SUNNY     28   9  43 NE5       30.53S WCI  23
HOLLAND        SUNNY     31  11  43 E5        30.60S WCI  26
GRAND RAPIDS   MOSUNNY   29   9  43 SE7       30.58S WCI  22
KALAMAZOO      SUNNY     30   7  37 VRB3      30.58S
STURGIS*       SUNNY     29  10  45 CALM      30.56S
THREE RIVERS*  FAIR      30  11  45 NE6       30.58S WCI  24

$$
OHZ001>008-015>018-024>025-221800-
NORTHWEST OHIO

CITY           SKY/WX    TMP DP  RH WIND       PRES   REMARKS
DEFIANCE       SUNNY     30  13  49 N8        30.58S WCI  22
FINDLAY        MOSUNNY   32  12  43 NE16G22   30.55R WCI  21
TOLEDO EXPRESS SUNNY     31   8  38 NE10      30.56F WCI  22
TOLEDO METCALF SUNNY     30  11  45 NE9       30.59S WCI  22
LIMA           SUNNY     30  16  56 NE12      30.54S WCI  20

$$
AND FOR LAKE MICHIGAN COASTAL AND OPEN LAKE BUOY OBSERVATIONS

STATION/POSITION TEMP    WIND        PRES    VSBY  WAVE
                 AIR SEA DIR/SP/G                  HT/PER
                 (F)     (DEG/KT/KT) (MB)    (MI)  (FT/S)
CALUMET HARBOR    29      40/ 11/ 14 1035.4R
MICHIGAN CITY     25      20/ 13/ 14   N/A
BURNS HARBOR      27      50/ 12/ 16 1036.2S
SAINT JOSEPH      30      20/  4/  6 1035.9

$$
&&




USA.gov is the U.S. government's official web portal to all federal, state and local government web resources and services.